{"data":{"norad_id":49020,"intl_designator":"2021-064C","name":"NINGXIA-1 8","alt_names":[],"object_type":"PAYLOAD","status":"ACTIVE","operator":null,"country":"PRC","launch_date":"2021-07-09","launch_site_code":"TAISC","launch_vehicle":null,"mission":null,"orbit_class":"UNKNOWN","rcs_meters":null,"size_class":null,"mass_kg":null,"dimensions":null,"purposes":[],"wikipedia_slug":null,"has_3d_model":false,"image_url":null,"decayed_at":null,"tle_current":{"epoch":"2026-09-20T22:18:36.597600Z","epoch_age_seconds":64287,"freshness":"FRESH","line1":"1 49020U 21064C   26263.92959025 -.00000248  00000+0 -67173-4 0  9991","line2":"2 49020  44.9932 153.4565 0008312 340.3820  19.6695 14.08547840267722","mean_motion":14.0854784,"eccentricity":0.0008312,"inclination_deg":44.9932,"raan_deg":153.4565,"arg_perigee_deg":340.382,"mean_anomaly_deg":19.6695,"bstar":-6.7173e-5,"rev_number":26772,"period_min":102.23294936152,"perigee_km":858.3253071763,"apogee_km":870.36520968272,"semimajor_km":7242.4822584295,"source":"CELESTRAK","updated_at":"2026-09-21T09:00:07.940931Z"}}}